Overview Statistics Trail Chart Weather Telemetry Raw packets
 

This is the latest recevied weather packets stored in our database for station/object CE3SUR-14. If no packets are shown the sender has not sent any weather packets the latest 10 day(s).

<< 1 2 3 4 >>
Time Temp. Humidity Pressure Rain* Wind** Luminosity Snow
1788385264 26.67° C 42% 960 hPa - - - -
1788383463 26.67° C 41% 959.8 hPa - - - -
1788381663 28.33° C 40% 959.7 hPa - - - -
1788379863 27.78° C 38% 959.6 hPa - - - -
1788378063 26.67° C 38% 959.2 hPa - - - -
1788376262 27.22° C 37% 959.1 hPa - - - -
1788374461 27.78° C 39% 959.2 hPa - - - -
1788372665 27.22° C 39% 959.3 hPa - - - -
1788370864 26.67° C 40% 959.8 hPa - - - -
1788369064 26.67° C 44% 959.9 hPa - - - -
1788367264 25° C 45% 960.3 hPa - - - -
1788365681 24.44° C 46% 960.4 hPa - - - -
1788365464 24.44° C 46% 960.4 hPa - - - -
1788363663 23.89° C 49% 960.3 hPa - - - -
1788361863 22.22° C 52% 960.6 hPa - - - -
1788360063 21.67° C 53% 960.5 hPa - - - -
1788358684 21.11° C 53% 960.6 hPa - - - -
1788358263 21.11° C 53% 960.6 hPa - - - -
1788356463 20° C 53% 960.7 hPa - - - -
1788354662 19.44° C 53% 961 hPa - - - -
1788352861 18.89° C 54% 961.1 hPa - - - -
1788351063 18.89° C 54% 960.5 hPa - - - -
1788349262 18.89° C 54% 960 hPa - - - -
1788347462 19.44° C 54% 959.4 hPa - - - -
1788345662 19.44° C 53% 959.2 hPa - - - -

* Rain since midnight (hover to see other rain measurements)
** Current wind speed in m/s (hover to see current wind gust speed)